Change the Weather History Date:

Saturday, December 21, 2013

  Actual Average Record
Temperature  
Mean Temperature 68 °F -  
Max Temperature 78 °F 62 °F 80 °F (1967)
Min Temperature 57 °F 43 °F 20 °F (1945)
Cooling Degree Days 2    
Growing Degree Days 18 (Base 50)    
Moisture  
Dew Point 63 °F    
Average Humidity 81    
Maximum Humidity 94    
Minimum Humidity 65    
Precipitation  
Precipitation 1.00 in - - ()
Sea Level Pressure  
Sea Level Pressure 29.75 in    
Wind  
Wind Speed 16 mph (South)    
Max Wind Speed 23 mph    
Max Gust Speed 39 mph    
Visibility 10 miles    
Events Thunderstorm    
Averages and records for this station are not official NWS values.
T = Trace of Precipitation, MM = Missing Value Source: NWS Daily Summary

Daily Weather History Graph

Daily Weather History Graph

Search for Another Location

Airport or City:

Trip Planner

Search our weather history database for the weather conditions in past years. The results will help you decide how hot, cold, wet, or windy it might be!

Date:

Astronomy

Dec. 21, 2013 Rise Set
Actual Time 7:00 AM CST 5:06 PM CST
Civil Twilight 6:33 AM CST 5:33 PM CST
Nautical Twilight 6:03 AM CST 6:03 PM CST
Astronomical Twilight 5:33 AM CST 6:33 PM CST
Moon 9:08 PM CST (12/21) 9:39 AM CST (12/21)
Length of Visible Light 10h 59m
Length of Day
10h 05m
Waning Gibbous, 84% of the Moon is Illuminated
Dec 21
Waning Gibbous
Dec 25
Last Quarter
Jan 1
New
Jan 7
First Quarter
Jan 15
Full

Hourly Weather History & Observations

Time (CST) Temp. Dew Point Humidity Pressure Visibility Wind Dir Wind Speed Gust Speed Precip Events Conditions
12:15 AM 69.8 °F 64.4 °F 83% 29.89 in 10.0 mi South 12.7 mph 20.7 mph N/A   Mostly Cloudy
12:35 AM 69.8 °F 64.4 °F 83% 29.88 in 10.0 mi South 15.0 mph 21.9 mph N/A   Mostly Cloudy
12:55 AM 69.8 °F 64.4 °F 83% 29.88 in 10.0 mi South 15.0 mph 24.2 mph N/A   Scattered Clouds
1:15 AM 68.0 °F 62.6 °F 83% 29.86 in 10.0 mi South 13.8 mph - N/A   Scattered Clouds
1:35 AM 68.0 °F 64.4 °F 88% 29.85 in 10.0 mi SSE 18.4 mph 24.2 mph N/A   Mostly Cloudy
1:55 AM 68.0 °F 64.4 °F 88% 29.85 in 10.0 mi South 15.0 mph 23.0 mph N/A   Mostly Cloudy
2:15 AM 68.0 °F 64.4 °F 88% 29.85 in 10.0 mi South 18.4 mph 21.9 mph N/A   Mostly Cloudy
2:35 AM 68.0 °F 64.4 °F 88% 29.84 in 10.0 mi South 17.3 mph 25.3 mph N/A   Overcast
2:55 AM 68.0 °F 64.4 °F 88% 29.83 in 10.0 mi South 17.3 mph 21.9 mph N/A   Overcast
3:15 AM 69.8 °F 64.4 °F 83% 29.83 in 10.0 mi South 20.7 mph 24.2 mph N/A   Overcast
3:35 AM 69.8 °F 64.4 °F 83% 29.82 in 10.0 mi South 17.3 mph 27.6 mph N/A   Overcast
3:55 AM 69.8 °F 64.4 °F 83% 29.81 in 10.0 mi South 19.6 mph 28.8 mph N/A   Overcast
4:15 AM 69.8 °F 64.4 °F 83% 29.80 in 10.0 mi South 16.1 mph 23.0 mph N/A   Overcast
4:35 AM 69.8 °F 64.4 °F 83% 29.80 in 10.0 mi South 18.4 mph 24.2 mph N/A   Overcast
4:55 AM 69.8 °F 64.4 °F 83% 29.79 in 10.0 mi South 19.6 mph 23.0 mph N/A   Overcast
5:15 AM 69.8 °F 64.4 °F 83% 29.79 in 10.0 mi South 20.7 mph 25.3 mph N/A   Overcast
5:35 AM 69.8 °F 64.4 °F 83% 29.77 in 10.0 mi SSE 18.4 mph 26.5 mph N/A   Overcast
5:55 AM 69.8 °F 64.4 °F 83% 29.76 in 10.0 mi South 15.0 mph 25.3 mph N/A   Overcast
6:15 AM 69.8 °F 64.4 °F 83% 29.75 in 10.0 mi South 18.4 mph 27.6 mph N/A   Overcast
6:35 AM 69.8 °F 64.4 °F 83% 29.76 in 10.0 mi South 17.3 mph 25.3 mph N/A   Overcast
6:55 AM 71.6 °F 66.2 °F 83% 29.75 in 10.0 mi South 20.7 mph 28.8 mph N/A   Overcast
7:15 AM 71.6 °F 66.2 °F 83% 29.76 in 10.0 mi South 16.1 mph 26.5 mph N/A   Overcast
7:35 AM 71.6 °F 66.2 °F 83% 29.76 in 10.0 mi South 19.6 mph 27.6 mph N/A   Overcast
7:55 AM 71.6 °F 64.4 °F 78% 29.78 in 10.0 mi South 16.1 mph 26.5 mph N/A   Overcast
8:15 AM 71.6 °F 64.4 °F 78% 29.79 in 10.0 mi South 16.1 mph 24.2 mph N/A   Overcast
8:35 AM 71.6 °F 64.4 °F 78% 29.79 in 10.0 mi South 15.0 mph 20.7 mph N/A   Overcast
8:55 AM 71.6 °F 64.4 °F 78% 29.78 in 10.0 mi South 18.4 mph 21.9 mph N/A   Overcast
9:15 AM 71.6 °F 64.4 °F 78% 29.78 in 10.0 mi South 15.0 mph 24.2 mph N/A   Overcast
9:35 AM 73.4 °F 64.4 °F 73% 29.78 in 10.0 mi South 16.1 mph 26.5 mph N/A   Overcast
9:55 AM 73.4 °F 66.2 °F 78% 29.77 in 10.0 mi South 17.3 mph 23.0 mph N/A   Overcast
10:15 AM 73.4 °F 66.2 °F 78% 29.77 in 10.0 mi South 18.4 mph 28.8 mph N/A   Overcast
10:35 AM 73.4 °F 66.2 °F 78% 29.76 in 10.0 mi South 17.3 mph 31.1 mph N/A   Overcast
10:55 AM 73.4 °F 66.2 °F 78% 29.76 in 10.0 mi South 15.0 mph 26.5 mph N/A   Overcast
11:15 AM 75.2 °F 66.2 °F 73% 29.74 in 10.0 mi South 18.4 mph 26.5 mph N/A   Overcast
11:35 AM 75.2 °F 66.2 °F 73% 29.73 in 10.0 mi South 20.7 mph 27.6 mph N/A   Overcast
11:55 AM 75.2 °F 66.2 °F 73% 29.71 in 10.0 mi South 15.0 mph 26.5 mph N/A   Overcast
12:15 PM 75.2 °F 66.2 °F 73% 29.70 in 10.0 mi South 21.9 mph 29.9 mph N/A   Overcast
12:35 PM 77.0 °F 66.2 °F 69% 29.69 in 10.0 mi South 17.3 mph 32.2 mph N/A   Overcast
12:55 PM 77.0 °F 66.2 °F 69% 29.68 in 10.0 mi South 17.3 mph 32.2 mph N/A   Overcast
1:15 PM 77.0 °F 66.2 °F 69% 29.67 in 10.0 mi South 16.1 mph 24.2 mph N/A   Overcast
1:35 PM 78.8 °F 66.2 °F 65% 29.65 in 10.0 mi South 18.4 mph 31.1 mph N/A   Overcast
1:55 PM 77.0 °F 66.2 °F 69% 29.65 in 10.0 mi South 18.4 mph 26.5 mph N/A   Overcast
2:15 PM 73.4 °F 66.2 °F 78% 29.65 in 10.0 mi SSW 13.8 mph 20.7 mph 0.01 in   Overcast
2:35 PM 73.4 °F 66.2 °F 78% 29.64 in 8.0 mi South 17.3 mph 24.2 mph 0.02 in   Overcast
2:55 PM 73.4 °F 66.2 °F 78% 29.64 in 10.0 mi South 17.3 mph 24.2 mph 0.02 in   Overcast
3:15 PM 75.2 °F 66.2 °F 73% 29.64 in 10.0 mi SSW 18.4 mph 26.5 mph N/A   Overcast
3:35 PM 75.2 °F 66.2 °F 73% 29.63 in 10.0 mi South 17.3 mph 29.9 mph 0.01 in   Overcast
3:55 PM 75.2 °F 66.2 °F 73% 29.64 in 10.0 mi South 23.0 mph 29.9 mph 0.01 in   Overcast
4:15 PM 75.2 °F 66.2 °F 73% 29.62 in 10.0 mi South 16.1 mph 29.9 mph N/A   Overcast
4:35 PM 75.2 °F 66.2 °F 73% 29.64 in 10.0 mi South 17.3 mph 29.9 mph N/A   Overcast
4:55 PM 75.2 °F 66.2 °F 73% 29.64 in 10.0 mi South 21.9 mph 27.6 mph N/A   Overcast
5:15 PM 75.2 °F 66.2 °F 73% 29.64 in 10.0 mi South 21.9 mph 39.1 mph N/A Thunderstorm Overcast
5:35 PM 75.2 °F 66.2 °F 73% 29.65 in 10.0 mi South 17.3 mph 33.4 mph N/A Thunderstorm Overcast
5:55 PM 75.2 °F 66.2 °F 73% 29.65 in 10.0 mi SSW 21.9 mph 38.0 mph N/A   Overcast
6:15 PM 73.4 °F 66.2 °F 78% 29.66 in 10.0 mi SSW 19.6 mph 31.1 mph 0.01 in   Overcast
6:35 PM 73.4 °F 66.2 °F 78% 29.67 in 10.0 mi South 19.6 mph 33.4 mph 0.01 in Thunderstorm Overcast
6:55 PM 69.8 °F 60.8 °F 73% 29.71 in 10.0 mi WNW 16.1 mph 24.2 mph 0.07 in Thunderstorm Overcast
7:15 PM 60.8 °F 57.2 °F 88% 29.73 in 10.0 mi NW 11.5 mph - 0.14 in Thunderstorm Mostly Cloudy
7:35 PM 60.8 °F 57.2 °F 88% 29.74 in 8.0 mi NW 9.2 mph - 0.30 in   Overcast
7:55 PM 60.8 °F 57.2 °F 88% 29.75 in 10.0 mi NNW 5.8 mph - 0.40 in Thunderstorm Mostly Cloudy
8:15 PM 59.0 °F 57.2 °F 94% 29.75 in 10.0 mi North 3.5 mph - 0.02 in Thunderstorm Overcast
8:35 PM 59.0 °F 55.4 °F 88% 29.77 in 2.5 mi Calm Calm - 0.13 in Thunderstorm Overcast
8:55 PM 59.0 °F 55.4 °F 88% 29.75 in 8.0 mi Calm Calm - 0.17 in Thunderstorm Thunderstorm
9:15 PM 59.0 °F 57.2 °F 94% 29.76 in 7.0 mi ESE 6.9 mph - 0.15 in Thunderstorm Thunderstorm
9:35 PM 59.0 °F 55.4 °F 88% 29.78 in 9.0 mi South 5.8 mph - 0.21 in Thunderstorm Overcast
9:55 PM 59.0 °F 55.4 °F 88% 29.79 in 10.0 mi Calm Calm - 0.27 in Thunderstorm Thunderstorm
10:15 PM 57.2 °F 55.4 °F 94% 29.78 in 10.0 mi SSE 5.8 mph - 0.04 in Thunderstorm Thunderstorm
10:35 PM 57.2 °F 55.4 °F 94% 29.79 in 10.0 mi South 3.5 mph - 0.04 in   Overcast
10:55 PM 57.2 °F 55.4 °F 94% 29.79 in 10.0 mi South 5.8 mph - 0.06 in   Overcast
11:15 PM 57.2 °F 55.4 °F 94% 29.79 in 10.0 mi South 8.1 mph - N/A   Overcast
11:35 PM 57.2 °F 55.4 °F 94% 29.80 in 10.0 mi SSE 5.8 mph - N/A   Overcast
11:55 PM 57.2 °F 55.4 °F 94% 29.82 in 10.0 mi South 6.9 mph - N/A Thunderstorm Thunderstorm